Atajado, Bolivia

6:34 PM -04 en Noviembre 16, 2018 (GMT -0400)
Atajado

Tiempo Historia de 85245 - Noviembre, 2018

Change the Weather History Date:

Viernes, Noviembre 9, 2018

  Actual Average Record
Temperature  
Temperatura media 80 ° F -  
Temperatura máxima 90 ° F 85 ° F - ()
Temperatura mínima 70 ° F 69 ° F - ()
Cooling Degree Days 15    
Growing Degree Days 30 (Base 50)    
Moisture  
Punto de rocío 68 ° F    
Average Humidity 56    
Maximum Humidity 83    
Minimum Humidity 38    
Precipitación  
Precipitación 0.00 pul - - ()
Presión al nivel del mar  
Presión al nivel del mar 29.79 pul    
Viento  
Velocidad del viento 5 mph ()    
Velocidad máxima del viento 14 mph    
Max Gust Speed -    
Visibilidad 7.4 Millas    
Eventos      
T = Trace of Precipitation, MM = Missing Value Source: Averaged Metar Reports

Daily Weather History Graph

Daily Weather History Graph

Search for Another Location

Airport or City:

Astronomía

Nov. 09, 2018 Salida Puesta
Hora real 5:30 AM -04 6:22 PM -04
Crepúsculo civil 5:07 AM -04 6:45 PM -04
Crepúsculo náutico 4:40 AM -04 7:12 PM -04
Crepúsculo astronómico 4:12 AM -04 7:40 PM -04
Luna 7:05 AM -04 (11/9) 8:21 PM -04 (11/9)
Horas de luz 13h 38m
Horas de luz
12h 52m
Creciente, 4% of the Moon is Illuminated
Nov 9
Creciente
Nov 15
Cuarto creciente
Nov 23
Luna llena
Nov 29
Cuarto menguante
Dic 7
Nueva

Hourly Weather History & Observations

Hora (-04) Temp. Índice de calor Punto de rocío Humedad Presión Visibilidad Wind Dir Velocidad del viento Velocidad de ráfagas Precip Eventos Condiciones
5:00 AM 71.6 ° F - 66.2 ° F 83% 29.83 pul 6.2 mi Variable 1.2 mph - N/A   Muy nublado
6:00 AM 71.6 ° F - 66.2 ° F 83% 29.86 pul 6.2 mi Variable 1.2 mph - N/A   Muy nublado
7:00 AM 77.0 ° F - 68.0 ° F 74% 29.86 pul 6.2 mi Sur 3.5 mph - N/A   Nubes dispersas
8:00 AM 81 ° F - 67 ° F 54% 29.84 pul 12 mi 2.3 mph - -   Nubes dispersas
8:00 AM 80.6 ° F 83.2 ° F 68.0 ° F 65% 29.89 pul 6.2 mi Variable 2.3 mph - N/A   Nubes dispersas
9:00 AM 84.2 ° F 88.4 ° F 69.8 ° F 62% 29.89 pul 6.2 mi Variable 2.3 mph - N/A   Nubes dispersas
10:00 AM 87.8 ° F 92.6 ° F 69.8 ° F 55% 29.86 pul 6.2 mi Variable 2.3 mph - N/A   Parcialmente nublado
11:00 AM 88 ° F - 71 ° F 48% 29.80 pul 12 mi Norte 6.9 mph - -   Muy nublado
11:00 AM 87.8 ° F 93.8 ° F 71.6 ° F 58% 29.86 pul 6.2 mi Norte 6.9 mph - N/A   Muy nublado
12:00 PM 87.8 ° F 92.6 ° F 69.8 ° F 55% 29.83 pul 6.2 mi NNO 9.2 mph - N/A   Parcialmente nublado
1:00 PM 87.8 ° F 91.4 ° F 68.0 ° F 52% 29.80 pul 6.2 mi ONO 11.5 mph - N/A   Muy nublado
2:00 PM 89 ° F - 67 ° F 38% 29.71 pul 12 mi ONO 11.5 mph - -   Muy nublado
2:00 PM 87.8 ° F 90.4 ° F 66.2 ° F 49% 29.77 pul 6.2 mi ONO 11.5 mph - N/A   Muy nublado
3:00 PM 91.4 ° F 95.4 ° F 68.0 ° F 46% 29.74 pul 6.2 mi NNO 13.8 mph - N/A   Nubes dispersas
4:00 PM 91.4 ° F 95.4 ° F 68.0 ° F 46% 29.71 pul 6.2 mi ONO 12.7 mph - N/A   Parcialmente nublado
5:00 PM 89 ° F - 67 ° F 39% 29.62 pul 12 mi NO 11.5 mph - -   Nubes dispersas
5:00 PM 89.6 ° F 93.4 ° F 68.0 ° F 49% 29.68 pul 6.2 mi NO 11.5 mph - N/A   Parcialmente nublado
6:00 PM 86.0 ° F 89.4 ° F 68.0 ° F 55% 29.68 pul 6.2 mi NNO 11.5 mph - N/A   Desconocido
7:00 PM 84.2 ° F 87.3 ° F 68.0 ° F 58% 29.71 pul 6.2 mi Oeste 6.9 mph - N/A   Desconocido